Overview Statistics Trail Chart Weather Telemetry Raw packets
 

This is the latest recevied weather packets stored in our database for station/object KK7MLS-13. If no packets are shown the sender has not sent any weather packets the latest 10 day(s).

<< 66 67 68 69 70 71 72 >>
Time Temp. Humidity Pressure Rain* Wind** Luminosity Snow
1788209957 29.44° C 35% 1009.1 hPa 0 mm - 636 W/m² -
1788209653 29.44° C 40% 1009 hPa 0 mm - 643 W/m² -
1788209353 30° C 38% 1009.2 hPa 0 mm - 638 W/m² -
1788209052 29.44° C 36% 1009.2 hPa 0 mm - 642 W/m² -
1788208752 29.44° C 38% 1009.3 hPa 0 mm - 643 W/m² -
1788208447 29.44° C 39% 1009.3 hPa 0 mm - 652 W/m² -
1788208145 28.89° C 39% 1009 hPa 0 mm - 655 W/m² -
1788207840 28.89° C 39% 1009.3 hPa 0 mm - 645 W/m² -
1788207539 28.89° C 37% 1009.4 hPa 0 mm - 657 W/m² -
1788207238 28.89° C 38% 1009.5 hPa 0 mm - 658 W/m² -
1788206935 28.89° C 40% 1009.6 hPa 0 mm - 650 W/m² -
1788206629 28.33° C 44% 1009.7 hPa 0 mm - 646 W/m² -
1788206324 28.33° C 42% 1009.7 hPa 0 mm - 647 W/m² -
1788206020 27.78° C 43% 1009.6 hPa 0 mm - 640 W/m² -
1788205715 27.78° C 42% 1009.8 hPa 0 mm - 640 W/m² -
1788205411 27.78° C 45% 1009.8 hPa 0 mm - 638 W/m² -
1788205110 27.22° C 41% 1009.8 hPa 0 mm - 635 W/m² -
1788204805 27.22° C 43% 1009.8 hPa 0 mm - 631 W/m² -
1788204500 27.22° C 43% 1010.1 hPa 0 mm - 616 W/m² -
1788204195 26.67° C 41% 1010 hPa 0 mm - 620 W/m² -
1788203891 26.67° C 42% 1010.2 hPa 0 mm - 616 W/m² -
1788203587 26.11° C 45% 1010.2 hPa 0 mm - 606 W/m² -
1788203283 25.56° C 45% 1010.3 hPa 0 mm - 602 W/m² -
1788202982 25.56° C 45% 1010.2 hPa 0 mm - 604 W/m² -
1788202681 24.44° C 46% 1010.5 hPa 0 mm - 583 W/m² -

* Rain latest hour (hover to see other rain measurements)
** Current wind speed in m/s (hover to see current wind gust speed)